Location: ??????
(44.5958°N, 34.0092°E)
Time: 03:11:02
(UTC+00:00)

Meteor 2-2 Rocket - Pass Details

Date: 06 June 2020
Orbit: 853 x 928 km, 81.3° (Epoch: 06 July)

Event Time Altitude Azimuth Distance (km) Brightness Sun altitude
Rises 00:12:42 0° 346° (NNW) 3,589 8.1 -14.5°
Reaches altitude 10° 00:15:13 10° 343° (NNW) 2,640 7.3 -14.2°
Maximum altitude 00:21:09 61° 265° (W) 1,043 4.5 -13.6°
Enters shadow 00:26:30 13° 187° (S) 2,414 6.1 -13.0°
